Location: ??
(35.1714°N, 128.2806°E)
Time: 15:32:52
(UTC+00:00)

Cosmos 2360 - Pass Details

Date: 29 October 2020
Orbit: 848 x 854 km, 70.8° (Epoch: 01 December)

Event Time Altitude Azimuth Distance (km) Brightness Sun altitude
Exits shadow 20:03:59 14° 337° (NNW) 2,234 6.1 -21.4°
Maximum altitude 20:09:02 83° 251° (WSW) 859 4.1 -20.4°
Drops below altitude 10° 20:14:42 10° 163° (SSE) 2,462 6.9 -19.2°
Sets 20:17:08 0° 163° (SSE) 3,394 7.6 -18.7°
